User: anonymous   Login
Location: Mactaquac Provincial Park
(45.9573°N, 66.8897°W)
Time: 10:01:28
(UTC-03:00)
Language:

Cosmos 1766 - Orbit

View from above orbital plane
View from above orbital plane
View from above satellite
View from above satellite

Ground track
Ground track

The orbit data is extracted from the following two-line orbital elements,

1 16881U 86055A   16179.01369411  .00001395  00000-0  84924-4 0  9996
2 16881  82.5037  10.9388 0014624 237.2022 122.7799 15.09550370627844
Epoch (UTC): 27 June 2016 00:19:43
Eccentricity: 0.0014624
inclination: 82.5037°
perigee height: 527 km
apogee height: 547 km
right ascension of ascending node: 10.9388°
argument of perigee: 237.2022°
revolutions per day: 15.09550370
mean anomaly at epoch: 122.7799°
orbit number at epoch: 62784

The dashed part of the orbit path shows where the satellite is in the earth's shadow,  

DLR